This demonstration page uses our WeatherBlox Daily Observations layout. Learn more.

Left ArrowRight Arrow

39.92423, -83.80882

Hourly Observations for June 22, 2015

Temp ( °F °C ) Dew Point ( °F °C ) Humidity (%) Winds ( mph kmh ) Pressure ( in mb ) Visibility ( mi km ) Precip ( " mm )
12:56 am 00:56 Clear 70 21.1 69 20.5 96 96 WSW 3 6 30.04 1017 9 14.48406 0 0
1:56 am 01:56 Clear 70 21.1 69 20.5 96 96 Calm 30.03 1017 8 12.87472 0 0
2:56 am 02:56 Clear with Mist and Fog 68 20 68 20 100 100 Calm 30.03 1017 6 9.65604 0 0
3:42 am 03:42 Clear with Mist and Fog 68 20 68 20 100 100 Calm 30.03 1017 1.5 2.41401 0 0
3:44 am 03:44 Clear with Mist and Fog 66 19 66 19 100 100 Calm 30.03 1017 0.75 1.207005 0 0
3:56 am 03:56 Clear with Mist and Fog 67 19.4 67 19.4 100 100 Calm 30.04 1017 2 3.21868 0 0
4:03 am 04:03 Clear with Mist and Fog 66 19 66 19 100 100 Calm 30.03 1017 5 8.0467 0 0
4:41 am 04:41 Clear with Mist and Fog 66 19 66 19 100 100 SW 3 6 30.03 1017 2 3.21868 0 0
4:56 am 04:56 Clear with Mist and Fog 66 18.8 66 18.8 100 100 SW 5 7 30.04 1017 3 4.82802 0 0
5:00 am 05:00 Clear with Mist and Fog 66 19 66 19 100 100 SW 5 7 30.03 1017 1.75 2.816345 0 0
5:07 am 05:07 Clear with Mist and Fog 66 19 66 19 100 100 WSW 3 6 30.03 1017 1 1.60934 0 0
5:23 am 05:23 Clear with Fog 66 19 66 19 100 100 SSW 5 7 30.03 1017 0.5 0.80467 0 0
5:34 am 05:34 Clear with Mist and Fog 66 19 66 19 100 100 SW 3 6 30.03 1017 1 1.60934 0 0
5:38 am 05:38 Mostly Cloudy with Mist and Fog 66 19 66 19 100 100 SSW 3 6 30.03 1017 1 1.60934 0 0
5:44 am 05:44 Mostly Cloudy with Fog 66 19 66 19 100 100 Calm 30.03 1017 0.5 0.80467 0 0
5:56 am 05:56 Mostly Cloudy with Fog 67 19.4 67 19.4 100 100 S 3 6 30.05 1018 0.25 0.402335 0 0
6:14 am 06:14 Mostly Cloudy with Mist and Fog 66 19 66 19 100 100 Calm 30.06 1018 0.75 1.207005 0 0
6:23 am 06:23 Mostly Cloudy with Fog 66 19 66 19 100 100 Calm 30.06 1018 0.25 0.402335 0 0
6:36 am 06:36 Mostly Cloudy with Fog 66 19 66 19 100 100 Calm 30.06 1018 5 8.0467 0 0
6:56 am 06:56 Cloudy with Fog 67 19.4 67 19.4 100 100 Calm 30.07 1018 5 8.0467 0 0
7:14 am 07:14 Cloudy with Mist and Fog 70 21 70 21 100 100 SSW 3 6 30.06 1018 1.25 2.011675 0 0
7:18 am 07:18 Cloudy with Mist and Fog 70 21 70 21 100 100 SSW 3 6 30.06 1018 2 3.21868 0 0
7:41 am 07:41 Mostly Cloudy with Mist and Fog 70 21 70 21 100 100 SSW 7 11 30.06 1018 3 4.82802 0 0
7:56 am 07:56 Mostly Cloudy with Mist and Fog 70 21.1 70 21.1 100 100 SSW 7 11 30.07 1018 3 4.82802 0 0
8:03 am 08:03 Cloudy with Mist and Fog 70 21 70 21 100 100 SSW 7 11 30.06 1018 3 4.82802 0 0
8:56 am 08:56 Partly Cloudy with Mist and Fog 72 22.2 72 22.2 100 100 SSW 7 11 30.05 1018 6 9.65604 0 0
9:56 am 09:56 Mostly Sunny 78 25.5 72 22.2 82 82 SSW 7 11 30.03 1017 8 12.87472 0 0
10:56 am 10:56 Mostly Cloudy 80 26.6 72 22.2 77 77 S 6 9 30.01 1016 9 14.48406 0 0
11:48 am 11:48 Mostly Cloudy 81 27 73 23 79 79 SSE 8 13 30 1016 9 14.48406 0 0
11:56 am 11:56 Partly Cloudy 82 27.7 72 22.2 72 72 S 7 11 30.03 1017 8 12.87472 0 0
12:56 pm 12:56 Partly Cloudy 84 28.8 73 22.7 70 70 SSW 8 13 30.06 1018 7 11.26538 0 0
1:56 pm 13:56 Mostly Sunny 85 29.4 74 23.3 70 70 S 9 15 30.04 1017 7 11.26538 0 0
2:56 pm 14:56 Mostly Sunny 86 30 73 22.7 65 65 S 10 17 30.03 1017 8 12.87472 0 0
3:56 pm 15:56 Partly Cloudy 87 30.5 74 23.3 65 65 SSW 8 13 30.01 1016 8 12.87472 0 0
4:56 pm 16:56 Sunny 87 30.5 74 23.3 65 65 S 12 19 29.96 1015 8 12.87472 0 0
5:56 pm 17:56 Mostly Sunny 85 29.4 74 23.3 70 70 SSW 9 15 29.96 1015 8 12.87472 0 0
6:56 pm 18:56 Sunny 84 28.8 73 22.7 70 70 S 15 24 29.91 1013 7 11.26538 0 0
7:56 pm 19:56 Sunny 82 27.7 73 22.7 74 74 SSW 9 15 29.93 1014 8 12.87472 0 0
8:56 pm 20:56 Sunny 80 26.6 73 22.7 79 79 SSW 9 15 29.92 1013 7 11.26538 0 0
9:56 pm 21:56 Clear 78 25.5 74 23.3 88 88 SSW 7 11 29.92 1013 8 12.87472 0 0
10:56 pm 22:56 Clear 78 25.5 74 23.3 88 88 SSW 8 13 29.93 1014 8 12.87472 0 0
11:56 pm 23:56 Clear 77 25 74 23.3 90 90 SSW 7 11 29.92 1013 7 11.26538 0 0

Powered by AerisWeather